sat.trackr.live / text

‹ back to catalog

DOORY-SAT

NORAD 58500 · 2023-188A

PAYLOAD ACTIVE UNKNOWN

§ Identity

Operator
Country
SKOR
Launch date
2023-12-04
Launch site
JJSLA
Launch vehicle
Mass (kg)
RCS (m²)

External: N2YO · Heavens-Above · Gunter

§ Orbital elements

Epoch: 2026-09-21T22:30:20.458656Z

Period
97.24 min
Inclination
46.9822°
Eccentricity
0.0007669
Mean motion
14.80821912 rev/d
Perigee alt
621.4 km
Apogee alt
632.1 km
Semi-major
7,004.9 km
B*
1.0164e-4
RAAN
181.0327°
Arg perigee
138.9650°
Mean anomaly
221.1823°
Rev number
15,133

§ Raw data

DOORY-SAT1 58500U 23188A   26264.93773679  .00000586  00000+0  10164-3 0  99942 58500  46.9822 181.0327 0007669 138.9650 221.1823 14.80821912151331

JSON: /api/v1/satellites/58500 · /tle

For live sub-satellite position, see the globe view (requires WebGL).

§ Visibility from observer

Set your observer location to see the next 7 days of passes ≥ 10°. The values pass through the URL so the page stays shareable.

No JS? Fill the form by hand. The geolocation button needs JavaScript.